Location: C�mpuri de-Sus
(45.9500°N, 22.5500°E)
Time: 05:41:40
(UTC+00:00)

Cosmos 2278 Rocket - Pass Details

Date: 07 June 2022
Orbit: 840 x 846 km, 71.0° (Epoch: 03 July)

Event Time Altitude Azimuth Distance (km) Brightness Sun altitude
Rises 20:44:19 0° 331° (NNW) 3,416 7.1 -17.3°
Reaches altitude 10° 20:46:46 10° 330° (NNW) 2,476 5.9 -17.4°
Maximum altitude 20:52:26 71° 247° (WSW) 893 2.3 -17.8°
Enters shadow 20:55:15 30° 171° (S) 1,459 2.9 -18.0°
